Back to catalog

YAOGAN-43 03B

AliveMilitaryVLEO
NORAD 61618·PAYLOAD·🇨🇳 China

Launched Oct 23, 2024 from Xichang Satellite Launch Center

Loading…

Next Passes (next 24 hours)

TLE

FreshSource: Space-Track

Epoch: Sep 14, 2026, 17:23 UTC

1 61618U 24190B   26257.72496756  .00006816  00000-0  28242-3 0  9998
2 61618  34.9900 354.4510 0007042  99.3735 260.7776 15.23191833105524

Track YAOGAN-43 03B in real time with AllMySat

Download on the App Store